• In Hungary
  • List of Countries
  • For 7 days
  • Water Temperature
  • Satellite Maps
  • Weather Map
  • News
  • Weather Widgets
  • user-avatar
    Login

    Hourly Weather Nosiny

    Today, 20 May, Sunday

    Time Temperature Precipitation Wind Pressure Humidity
    00:00 +14°C° 0 mm 2 mps 748 mmHg 94%
    01:00 +14°C° 0 mm 2 mps 749 mmHg 95%
    02:00 +13°C° 0 mm 2 mps 749 mmHg 96%
    03:00 +13°C° 0 mm 2 mps 749 mmHg 97%
    04:00 +13°C° 0 mm 2 mps 749 mmHg 96%
    05:00 +14°C° 0 mm 2 mps 750 mmHg 95%
    06:00 +14°C° 0 mm 2 mps 750 mmHg 94%
    07:00 +15°C° 0 mm 2 mps 751 mmHg 88%
    08:00 +17°C° 0 mm 2 mps 751 mmHg 82%
    09:00 +18°C° 0 mm 2 mps 751 mmHg 75%
    10:00 +19°C° 0 mm 2 mps 751 mmHg 71%
    11:00 +20°C° 0 mm 2 mps 752 mmHg 67%
    12:00 +21°C° 0 mm 2 mps 752 mmHg 62%
    13:00 +21°C° 0.2 mm 2 mps 752 mmHg 62%
    14:00 +21°C° 0.2 mm 2 mps 752 mmHg 62%
    15:00 +21°C° 0.2 mm 3 mps 752 mmHg 62%
    16:00 +21°C° 0.4 mm 3 mps 752 mmHg 67%
    17:00 +20°C° 0.4 mm 3 mps 753 mmHg 72%
    18:00 +19°C° 0.4 mm 3 mps 753 mmHg 77%
    19:00 +18°C° 0.2 mm 3 mps 753 mmHg 80%
    20:00 +17°C° 0.2 mm 4 mps 754 mmHg 83%
    21:00 +14°C° 0.2 mm 4 mps 754 mmHg 86%
    22:00 +13°C° 0 mm 4 mps 754 mmHg 86%
    23:00 +13°C° 0 mm 4 mps 755 mmHg 87%

    Tomorrow, 21 May, Monday

    Time Temperature Precipitation Wind Pressure Humidity
    00:00 +12°C° 0 mm 5 mps 755 mmHg 87%
    01:00 +10°C° 0 mm 5 mps 755 mmHg 87%
    02:00 +10°C° 0 mm 5 mps 756 mmHg 87%
    03:00 +9°C° 0 mm 5 mps 756 mmHg 87%
    04:00 +9°C° 0 mm 5 mps 756 mmHg 84%
    05:00 +9°C° 0 mm 5 mps 757 mmHg 81%
    06:00 +9°C° 0 mm 5 mps 757 mmHg 78%
    07:00 +9°C° 0.1 mm 6 mps 757 mmHg 76%
    08:00 +10°C° 0.1 mm 6 mps 758 mmHg 73%
    09:00 +11°C° 0.1 mm 6 mps 758 mmHg 70%
    10:00 +13°C° 0.3 mm 6 mps 758 mmHg 70%
    11:00 +13°C° 0.3 mm 6 mps 758 mmHg 69%
    12:00 +14°C° 0.3 mm 5 mps 758 mmHg 69%
    13:00 +15°C° 0.2 mm 5 mps 758 mmHg 69%
    14:00 +15°C° 0.2 mm 5 mps 758 mmHg 68%
    15:00 +16°C° 0.2 mm 5 mps 758 mmHg 68%
    16:00 +16°C° 0.1 mm 5 mps 758 mmHg 69%
    17:00 +17°C° 0.1 mm 4 mps 759 mmHg 71%
    18:00 +17°C° 0.1 mm 4 mps 759 mmHg 72%
    19:00 +15°C° 0 mm 4 mps 759 mmHg 73%
    20:00 +14°C° 0 mm 4 mps 759 mmHg 74%
    21:00 +14°C° 0 mm 5 mps 760 mmHg 75%
    22:00 +13°C° 0 mm 5 mps 760 mmHg 75%
    23:00 +13°C° 0 mm 5 mps 760 mmHg 75%

    Day after tomorrow, 22 May, Tuesday

    Time Temperature Precipitation Wind Pressure Humidity
    00:00 +12°C° 0 mm 5 mps 760 mmHg 76%
    01:00 +11°C° 0 mm 4 mps 760 mmHg 76%
    02:00 +11°C° 0 mm 4 mps 761 mmHg 76%
    03:00 +10°C° 0 mm 4 mps 761 mmHg 76%
    04:00 +11°C° 0 mm 4 mps 761 mmHg 76%
    05:00 +10°C° 0 mm 5 mps 761 mmHg 77%
    06:00 +12°C° 0 mm 5 mps 761 mmHg 77%
    07:00 +13°C° 0 mm 5 mps 761 mmHg 73%
    08:00 +15°C° 0 mm 5 mps 761 mmHg 69%
    09:00 +16°C° 0 mm 6 mps 761 mmHg 65%
    10:00 +17°C° 0 mm 6 mps 761 mmHg 63%
    11:00 +20°C° 0 mm 5 mps 761 mmHg 61%
    12:00 +21°C° 0 mm 5 mps 761 mmHg 58%
    13:00 +22°C° 0 mm 5 mps 761 mmHg 58%
    14:00 +23°C° 0 mm 5 mps 761 mmHg 58%
    15:00 +23°C° 0 mm 5 mps 761 mmHg 58%
    16:00 +23°C° 0 mm 5 mps 760 mmHg 61%
    17:00 +23°C° 0 mm 4 mps 760 mmHg 65%
    18:00 +22°C° 0 mm 4 mps 760 mmHg 68%
    19:00 +21°C° 0 mm 4 mps 760 mmHg 72%
    20:00 +19°C° 0 mm 3 mps 760 mmHg 77%
    21:00 +18°C° 0 mm 3 mps 760 mmHg 81%
    22:00 +17°C° 0 mm 3 mps 760 mmHg 80%
    23:00 +17°C° 0 mm 3 mps 760 mmHg 79%

    23 May, Wednesday

    Time Temperature Precipitation Wind Pressure Humidity
    00:00 +17°C° 0 mm 3 mps 760 mmHg 78%
    01:00 +16°C° 0.1 mm 3 mps 760 mmHg 78%
    02:00 +16°C° 0.1 mm 3 mps 760 mmHg 77%
    03:00 +14°C° 0.1 mm 3 mps 760 mmHg 77%
    04:00 +16°C° 0 mm 3 mps 760 mmHg 77%
    05:00 +16°C° 0 mm 3 mps 760 mmHg 76%
    06:00 +16°C° 0 mm 2 mps 760 mmHg 76%
    07:00 +17°C° 0 mm 2 mps 760 mmHg 74%
    08:00 +18°C° 0 mm 3 mps 760 mmHg 71%
    09:00 +19°C° 0 mm 3 mps 760 mmHg 69%
    10:00 +19°C° 0.1 mm 3 mps 760 mmHg 68%
    11:00 +20°C° 0.1 mm 3 mps 760 mmHg 67%
    12:00 +20°C° 0.1 mm 3 mps 759 mmHg 67%
    13:00 +21°C° 0 mm 3 mps 759 mmHg 64%
    14:00 +22°C° 0 mm 4 mps 759 mmHg 61%
    15:00 +23°C° 0 mm 4 mps 758 mmHg 58%
    16:00 +23°C° 0 mm 4 mps 758 mmHg 61%
    17:00 +24°C° 0 mm 3 mps 757 mmHg 64%
    18:00 +24°C° 0 mm 3 mps 757 mmHg 67%
    19:00 +23°C° 0 mm 2 mps 757 mmHg 73%
    20:00 +20°C° 0 mm 2 mps 757 mmHg 79%
    21:00 +19°C° 0 mm 2 mps 756 mmHg 85%
    22:00 +19°C° 0 mm 1 mps 756 mmHg 87%
    23:00 +18°C° 0 mm 1 mps 756 mmHg 90%

    24 May, Thursday

    Time Temperature Precipitation Wind Pressure Humidity
    00:00 +18°C° 0 mm 1 mps 756 mmHg 92%
    01:00 +18°C° 0.4 mm 1 mps 756 mmHg 93%
    02:00 +17°C° 0.4 mm 2 mps 755 mmHg 94%
    03:00 +17°C° 0.4 mm 2 mps 755 mmHg 95%
    04:00 +17°C° 0.8 mm 2 mps 755 mmHg 94%
    05:00 +17°C° 0.8 mm 2 mps 755 mmHg 94%
    06:00 +18°C° 0.8 mm 2 mps 755 mmHg 93%
    07:00 +19°C° 0.3 mm 2 mps 755 mmHg 90%
    08:00 +20°C° 0.3 mm 2 mps 755 mmHg 87%
    09:00 +21°C° 0.3 mm 2 mps 755 mmHg 84%
    10:00 +21°C° 0.5 mm 2 mps 755 mmHg 79%
    11:00 +22°C° 0.5 mm 3 mps 755 mmHg 75%
    12:00 +24°C° 0.5 mm 3 mps 755 mmHg 71%
    13:00 +24°C° 0.7 mm 3 mps 754 mmHg 72%
    14:00 +24°C° 0.7 mm 3 mps 754 mmHg 74%
    15:00 +24°C° 0.7 mm 3 mps 754 mmHg 75%
    16:00 +23°C° 0.4 mm 2 mps 754 mmHg 78%
    17:00 +23°C° 0.4 mm 2 mps 754 mmHg 80%
    18:00 +23°C° 0.4 mm 1 mps 754 mmHg 83%
    19:00 +22°C° 0.6 mm 1 mps 754 mmHg 84%
    20:00 +20°C° 0.6 mm 1 mps 754 mmHg 85%
    21:00 +19°C° 0.6 mm 1 mps 754 mmHg 86%
    22:00 +19°C° 0.1 mm 1 mps 754 mmHg 87%
    23:00 +18°C° 0.1 mm 1 mps 754 mmHg 89%

    25 May, Friday

    Time Temperature Precipitation Wind Pressure Humidity
    00:00 +18°C° 0.1 mm 1 mps 754 mmHg 91%
    01:00 +17°C° 0.2 mm 2 mps 755 mmHg 92%
    02:00 +16°C° 0.2 mm 3 mps 755 mmHg 94%
    03:00 +16°C° 0.2 mm 3 mps 755 mmHg 95%
    04:00 +14°C° 0.5 mm 4 mps 756 mmHg 95%
    05:00 +14°C° 0.5 mm 5 mps 756 mmHg 94%
    06:00 +14°C° 0.5 mm 6 mps 757 mmHg 94%
    07:00 +13°C° 0.1 mm 6 mps 757 mmHg 93%
    08:00 +13°C° 0.1 mm 6 mps 758 mmHg 91%
    09:00 +11°C° 0.1 mm 6 mps 758 mmHg 90%
    10:00 +11°C° 0 mm 6 mps 759 mmHg 87%
    11:00 +13°C° 0 mm 6 mps 759 mmHg 83%
    12:00 +13°C° 0 mm 6 mps 759 mmHg 80%
    13:00 +15°C° 0 mm 6 mps 760 mmHg 75%
    14:00 +16°C° 0 mm 6 mps 760 mmHg 70%
    15:00 +17°C° 0 mm 6 mps 760 mmHg 65%
    16:00 +17°C° 0 mm 6 mps 760 mmHg 65%
    17:00 +16°C° 0 mm 6 mps 760 mmHg 65%
    18:00 +16°C° 0 mm 5 mps 761 mmHg 66%
    19:00 +14°C° 0 mm 5 mps 761 mmHg 67%
    20:00 +12°C° 0 mm 4 mps 762 mmHg 69%
    21:00 +11°C° 0 mm 4 mps 762 mmHg 70%
    22:00 +10°C° 0 mm 4 mps 763 mmHg 71%
    23:00 +8°C° 0 mm 4 mps 763 mmHg 73%
    Show more